Theta_e
334 335 334 335 334 334 334 334 334 334 335 335 335 334 333 335 338 340 340 340 340 340 342 343 344 344 344 344 344 344 343 343 342 341 341 338 338 338 340 342 345 346 348 349 350 350 352 355 356 356 356 357 356 355 355 356 356 357 356 357 356 356 353
333 334 335 335 334 334 335 335 334 334 335 336 336 335 333 335 338 339 340 340 340 341 342 343 344 344 344 344 344 344 343 343 343 345 343 341 340 338 341 341 344 346 348 349 350 350 352 354 357 356 356 357 356 355 354 355 355 355 355 355 355 354 353
332 334 335 335 334 334 335 335 335 335 335 336 337 336 334 334 337 339 340 341 340 341 343 344 345 344 345 345 344 344 343 342 343 343 342 341 338 336 340 341 343 346 348 350 351 351 354 354 356 357 356 356 356 355 353 353 353 354 354 354 355 355 352
332 333 335 336 336 336 336 336 336 336 336 336 337 337 335 335 337 339 341 341 341 341 342 344 345 345 345 345 344 344 344 342 343 343 343 343 340 337 338 340 344 346 347 349 351 352 354 355 355 356 361 356 356 356 354 353 353 353 353 353 354 355 354
332 334 335 335 336 335 335 335 336 336 336 337 337 339 337 336 337 339 341 342 342 341 343 344 346 346 346 346 346 346 345 343 343 343 343 344 342 338 337 338 342 346 347 349 351 353 352 354 354 355 357 356 355 355 355 353 353 353 352 352 353 354 353
330 332 334 335 336 336 336 336 336 337 337 337 337 338 338 337 337 338 340 342 342 343 344 345 346 347 345 345 346 346 346 345 344 344 343 343 343 339 337 338 339 345 348 349 351 352 352 353 354 354 355 357 356 355 355 355 354 353 352 352 352 353 353
330 332 333 335 336 336 336 336 337 337 338 338 339 339 339 337 337 338 340 341 343 342 343 344 346 346 346 346 346 346 345 345 344 344 344 343 343 342 340 338 340 341 348 350 350 352 352 352 353 353 355 356 356 355 355 355 354 354 353 352 351 351 353
330 331 333 335 335 337 337 337 337 337 338 338 338 339 339 338 338 338 338 340 342 342 343 344 345 346 346 346 346 345 346 345 345 345 344 343 343 344 343 341 340 339 343 348 350 352 352 352 353 353 353 355 355 355 355 355 354 354 353 353 351 350 353
331 332 333 334 335 337 337 337 337 337 337 337 338 338 339 339 338 338 339 339 341 342 342 344 346 347 347 347 346 346 346 346 346 345 344 343 343 343 344 345 343 341 339 343 348 351 352 352 352 352 352 353 354 355 354 354 354 354 353 353 352 351 352
328 329 332 334 336 336 337 337 337 337 336 337 337 337 339 339 339 339 340 340 340 341 342 343 345 347 347 347 347 347 346 346 346 346 345 344 344 343 343 344 345 346 341 340 342 347 351 351 351 351 351 351 352 353 354 354 354 354 354 353 353 353 352
326 327 330 332 333 334 335 336 336 336 337 337 337 337 339 340 340 340 340 341 341 341 343 343 345 346 347 347 347 347 346 346 347 346 345 344 344 344 343 343 345 347 345 343 340 342 346 350 350 350 350 350 351 352 353 354 354 354 354 354 354 354 354
322 324 326 327 332 335 335 336 339 339 337 337 337 338 338 339 340 341 341 342 343 342 342 343 345 345 346 347 347 347 346 346 346 346 346 345 345 344 344 343 343 345 347 347 344 342 342 345 348 350 349 350 350 352 353 354 354 354 354 354 354 354 354
319 320 322 324 327 329 331 333 335 338 340 340 339 338 339 339 340 341 342 343 344 344 344 344 345 345 345 346 347 347 347 347 347 347 347 347 346 346 345 344 343 343 345 348 347 345 343 343 345 348 349 349 350 351 352 353 354 354 354 355 355 354 354
321 317 319 321 323 325 327 329 331 332 335 341 342 341 340 340 341 341 343 343 345 346 346 346 345 345 345 346 346 346 347 347 348 348 347 347 347 346 345 345 344 343 343 346 348 348 346 345 344 345 348 348 349 350 352 352 353 354 354 355 355 355 354
314 315 316 317 319 321 323 326 328 330 333 334 335 340 342 342 341 342 343 345 346 347 347 348 347 346 346 346 346 346 348 348 348 348 348 348 347 346 346 345 344 344 343 343 345 348 348 348 346 344 345 348 349 349 351 352 353 354 354 354 354 355 354
313 314 314 315 317 318 320 322 325 327 330 332 334 335 338 341 343 343 343 344 346 348 349 349 348 348 347 347 347 348 348 349 349 349 348 348 347 346 346 346 345 344 343 342 342 344 347 348 348 346 344 345 348 349 350 351 352 351 343 345 354 354 355
313 314 314 315 316 317 318 321 323 325 327 329 333 335 336 338 341 345 344 345 347 348 350 351 350 349 349 348 349 349 350 349 349 349 348 348 347 347 347 346 345 344 343 343 342 342 344 347 346 346 346 345 346 348 350 351 351 341 334 335 340 352 354
313 313 313 314 316 317 317 319 321 323 325 327 330 334 336 337 340 343 346 346 347 349 351 352 351 350 350 351 351 351 351 351 350 350 349 348 348 347 347 347 346 345 344 343 342 343 343 344 345 346 346 346 345 346 349 350 344 334 332 333 333 340 355
311 313 314 314 315 317 316 317 320 322 324 326 327 330 333 336 337 340 342 343 345 351 351 351 352 352 351 352 352 352 352 352 351 351 350 350 349 349 348 347 346 345 345 344 344 344 343 343 344 345 346 345 344 345 347 349 340 332 330 331 331 332 344
311 312 314 314 314 316 317 318 319 321 324 325 327 329 330 334 336 339 344 347 346 346 349 351 352 352 352 353 353 353 353 353 352 351 351 351 351 350 349 348 347 347 346 346 346 344 344 344 343 344 345 345 345 345 346 347 340 331 328 327 328 330 335
310 312 313 314 314 315 316 318 318 320 323 325 327 328 329 330 333 336 339 342 346 346 345 346 348 351 352 353 353 354 354 353 353 352 352 352 352 351 350 349 348 348 347 347 346 345 344 344 344 344 345 345 346 345 345 347 335 328 326 324 324 326 331
311 312 312 314 314 315 316 317 319 320 322 327 326 327 328 328 331 333 336 340 341 345 346 345 345 345 348 352 354 354 354 354 354 353 353 353 352 351 350 350 349 348 348 348 347 347 347 347 346 345 345 346 346 346 345 347 331 326 324 323 323 325 338
313 314 314 315 316 316 317 319 320 321 325 325 326 326 327 328 330 331 334 336 338 340 343 346 344 344 346 349 352 356 356 356 355 354 354 354 353 352 352 351 350 350 350 349 348 347 347 347 347 347 346 346 346 346 346 347 336 324 321 321 321 324 340
316 316 315 315 317 316 317 319 321 323 323 324 325 326 328 328 329 330 332 334 335 336 338 341 344 347 348 347 348 353 357 357 356 355 355 354 353 353 353 353 353 352 352 349 348 348 348 348 348 348 348 347 346 346 346 347 339 323 319 319 319 329 341
317 316 316 316 316 316 316 317 319 322 322 322 323 325 327 329 329 330 331 333 333 335 335 337 340 343 345 348 351 352 352 357 357 357 356 355 355 355 354 353 353 353 353 352 351 350 349 349 348 348 348 348 348 350 347 347 341 323 319 318 317 327 342
315 316 317 317 317 318 319 318 319 318 319 320 321 324 325 328 329 330 331 333 334 333 334 335 337 340 342 345 348 352 353 353 356 357 357 356 356 356 355 355 355 354 353 352 352 350 350 350 349 348 348 348 348 348 348 348 348 340 318 317 315 320 342
316 317 317 316 316 321 318 316 316 317 317 318 321 324 325 326 327 328 330 330 330 330 331 333 336 339 342 345 348 350 353 355 356 357 358 358 357 357 357 356 355 354 353 352 352 351 350 349 349 349 348 349 349 348 348 349 348 345 320 316 315 316 328
316 316 317 318 319 319 317 315 315 317 317 317 319 322 325 325 324 326 326 327 327 328 330 332 334 337 341 345 348 352 354 355 356 358 358 359 358 357 356 356 356 355 354 353 352 350 350 349 348 348 348 349 349 349 348 350 343 349 327 317 314 314 317
314 315 314 314 315 318 318 314 313 316 316 316 318 320 323 323 322 323 325 324 325 328 329 331 333 336 340 344 348 353 356 356 356 357 359 359 359 357 356 356 355 355 354 352 351 350 349 349 349 348 348 348 349 350 350 350 349 334 342 320 314 313 314
315 316 316 316 316 318 318 314 315 316 316 316 317 319 322 322 320 322 323 322 325 327 329 330 332 334 337 339 342 345 350 355 358 358 358 358 358 357 356 355 355 354 354 353 351 350 349 349 349 348 347 347 348 349 350 351 350 338 330 332 315 313 312
312 315 315 314 315 319 318 315 314 316 316 315 316 318 320 322 320 320 320 322 325 327 327 328 330 330 332 334 337 340 344 348 354 357 357 358 358 357 356 355 355 353 353 353 351 350 349 349 349 348 347 347 347 348 349 351 350 350 337 327 321 314 312
313 314 313 314 316 318 318 315 316 316 315 314 315 317 320 320 320 318 319 323 325 326 326 326 327 328 329 331 334 337 340 343 348 354 357 357 358 358 357 356 355 354 353 353 352 351 350 349 348 348 347 347 347 347 349 350 350 350 349 336 329 320 314
310 312 312 312 314 318 317 316 316 316 315 313 314 316 319 320 320 320 321 322 323 325 325 325 325 327 328 329 331 334 339 343 349 353 355 355 357 358 358 357 356 355 353 353 352 351 350 349 348 348 347 347 347 348 348 349 349 350 350 347 342 337 329
309 310 312 312 313 317 317 315 317 316 315 314 315 316 318 319 319 320 320 322 323 324 324 324 326 326 327 328 330 333 339 345 351 353 354 354 355 356 356 357 357 355 354 353 353 351 350 350 349 348 348 347 347 347 348 348 349 349 349 349 346 343 338
309 310 310 310 312 318 315 315 317 317 316 315 316 316 318 319 319 320 319 321 322 323 323 324 326 327 327 329 331 335 341 348 351 352 352 353 354 356 357 356 356 356 356 357 357 355 354 352 351 351 351 350 349 347 347 347 347 349 335 349 332 340 342
308 309 310 310 313 315 315 318 318 316 316 316 317 317 319 319 319 319 319 320 321 322 322 324 325 327 328 330 332 335 341 347 347 348 350 351 352 354 356 347 334 346 357 356 342 336 333 333 351 354 353 352 351 351 349 348 350 333 326 323 320 319 322
308 309 310 311 313 313 314 315 318 317 316 316 318 319 319 318 318 318 319 320 320 321 322 322 325 326 327 330 331 333 336 340 343 345 348 351 352 353 353 354 350 319 322 335 340 330 321 318 322 326 333 348 352 347 333 333 329 324 318 317 315 314 315
309 309 311 313 314 314 315 316 316 315 316 316 318 318 317 317 317 317 319 319 320 321 321 322 324 324 325 326 329 333 336 340 342 345 346 349 351 352 353 353 353 353 326 317 320 322 318 316 315 316 317 322 332 343 349 329 318 316 313 314 313 312 312
Wind_Speed
13 12 13 15 16 17 17 17 17 17 17 17 17 18 18 16 16 15 15 16 18 17 16 15 15 13 14 13 12 11 10 9 8 9 8 8 7 7 7 7 8 7 7 7 7 8 7 5 6 6 6 6 6 6 6 5 5 5 4 4 4 4 4
13 13 14 14 14 16 17 17 17 16 16 17 17 18 17 18 16 16 17 17 18 19 17 16 15 14 14 13 12 11 11 11 10 8 7 6 6 6 7 8 8 8 8 7 6 6 5 5 6 6 6 6 6 6 6 5 5 4 4 4 4 3 3
16 16 15 15 16 16 17 15 16 16 17 17 17 17 18 19 18 19 17 17 18 17 15 16 16 15 14 13 12 12 12 10 9 10 10 10 9 9 7 7 8 8 8 6 6 6 5 6 5 6 6 6 6 5 5 5 4 4 4 4 4 5 4
17 17 18 20 19 16 16 16 17 16 16 18 19 20 19 19 18 17 17 18 19 17 17 16 16 15 14 14 13 12 12 12 11 11 11 9 9 7 7 6 6 6 6 8 8 6 6 6 6 6 6 6 6 5 4 5 4 4 4 4 5 5 5
19 20 19 17 17 16 16 17 18 18 19 19 19 19 19 17 17 15 16 17 19 20 19 19 15 14 13 13 11 11 12 13 11 10 10 9 7 6 7 8 7 7 8 6 5 6 5 6 6 6 6 5 5 5 5 4 4 4 4 4 5 5 5
18 18 18 17 17 17 18 19 19 20 19 19 19 17 16 17 16 17 18 17 17 17 17 16 17 15 15 14 12 12 11 11 11 10 10 9 8 8 8 8 8 7 6 8 6 6 6 6 6 6 7 6 6 6 5 5 5 5 5 5 5 5 5
17 19 19 18 18 18 19 19 19 19 18 17 16 14 14 15 17 17 16 16 18 18 17 17 17 16 15 13 14 13 13 13 11 11 9 8 8 8 8 7 7 8 8 4 6 6 6 7 7 7 7 7 7 7 6 6 6 5 5 5 5 5 5
13 16 18 20 19 19 18 17 17 17 16 14 14 14 17 16 15 16 17 17 17 17 16 18 16 15 15 13 13 15 14 14 12 11 10 10 9 9 9 7 7 7 5 7 8 7 8 8 7 7 7 7 7 7 7 7 6 6 5 6 5 5 4
16 15 16 18 18 18 17 16 17 17 18 17 17 17 17 16 17 17 18 17 16 17 18 17 17 15 14 14 13 14 13 12 12 11 12 12 10 10 10 9 7 6 8 8 7 7 7 8 8 7 7 7 7 7 7 7 7 6 6 6 6 6 5
17 9 12 10 11 11 13 13 13 12 14 15 15 15 16 17 17 16 16 17 16 18 18 17 15 14 14 14 14 15 13 13 12 13 13 13 12 12 11 10 9 7 7 7 6 8 8 7 8 7 7 8 7 7 7 7 7 6 7 8 7 7 7
17 20 13 2 5 7 8 8 10 13 15 15 16 15 15 16 16 16 17 16 17 17 17 16 14 15 14 14 15 14 14 14 13 13 14 14 12 13 12 11 10 9 9 8 8 8 7 7 7 7 8 9 9 8 8 8 8 8 8 7 7 7 7
19 19 18 19 14 7 3 1 2 4 7 11 13 14 15 15 16 16 16 17 16 15 15 15 14 14 14 14 14 14 14 14 13 14 15 15 14 14 13 12 11 10 9 10 10 8 8 9 8 8 9 9 9 9 9 8 8 9 9 9 7 7 7
18 17 17 18 17 15 14 12 10 6 2 0 3 6 10 12 14 14 15 16 16 15 15 15 14 14 14 14 14 13 14 14 14 13 13 14 13 12 12 12 12 11 11 10 10 10 10 9 9 9 9 10 9 9 10 9 8 8 9 8 8 8 7
20 20 20 20 20 20 17 14 13 12 11 3 2 5 5 7 10 12 13 15 14 14 13 12 13 13 14 14 14 13 14 13 13 13 13 12 12 12 12 12 12 12 11 10 11 11 11 11 11 10 9 9 9 10 9 8 8 8 8 8 8 8 8
19 19 20 20 19 19 18 17 14 13 11 10 11 7 1 6 7 7 8 9 10 12 13 12 13 14 14 13 14 14 13 12 12 11 12 12 12 12 13 13 12 11 11 10 11 10 11 11 11 10 10 9 9 9 8 9 9 8 9 9 9 8 9
15 16 17 18 18 17 17 17 15 14 12 12 11 10 10 6 1 8 9 10 11 11 11 12 13 14 14 15 14 13 13 13 12 12 12 12 12 12 12 12 12 11 11 12 11 11 10 11 11 11 11 11 10 9 8 9 8 10 15 13 10 9 8
15 14 14 15 16 17 17 16 16 15 15 14 12 10 9 8 8 3 9 10 12 12 12 13 13 14 14 14 13 13 12 12 12 12 13 13 13 12 12 13 11 11 11 12 12 12 11 11 11 11 11 11 11 11 10 9 9 14 15 16 16 11 9
15 14 15 14 14 16 17 17 17 17 15 14 13 11 10 10 10 7 1 5 10 12 12 13 13 13 13 13 13 13 13 12 12 12 13 12 13 13 12 12 12 12 12 11 12 11 11 12 12 12 11 11 11 11 11 11 13 15 15 16 17 15 11
13 15 14 15 14 14 16 17 16 15 14 13 13 12 12 10 9 9 8 0 4 6 11 14 14 14 13 14 14 14 14 13 13 13 13 13 13 12 12 13 13 13 12 13 12 10 11 13 12 12 12 11 12 12 12 11 14 15 16 16 17 18 14
11 12 14 15 14 15 14 13 14 14 13 11 12 12 11 10 9 9 8 6 3 3 10 11 13 14 15 14 14 14 13 13 14 14 14 13 13 13 13 13 13 13 12 11 11 12 12 12 13 12 12 12 12 11 11 12 14 16 17 17 18 18 15
11 12 12 14 17 17 16 15 15 16 15 14 13 12 12 11 10 10 9 8 3 2 2 2 3 5 9 12 13 13 13 13 13 14 13 13 13 13 13 13 12 13 12 11 12 12 12 12 13 13 12 12 12 11 11 11 15 16 18 18 18 18 15
9 9 9 10 12 15 16 15 16 17 16 14 12 12 10 11 11 10 10 7 6 4 2 4 3 2 1 4 9 11 12 13 13 14 13 13 13 13 13 13 13 13 12 12 11 11 11 11 11 12 12 12 12 12 13 12 16 16 17 18 18 17 11
8 8 6 5 6 8 11 13 14 16 16 16 14 12 11 10 10 10 9 9 7 6 6 3 1 3 3 3 3 6 8 10 12 12 13 13 13 14 14 13 13 13 11 12 12 12 12 12 12 11 11 12 12 13 13 12 14 17 18 18 19 13 9
7 7 6 5 2 2 6 9 11 11 12 15 15 14 12 11 10 9 7 9 8 7 7 6 5 3 1 3 5 5 6 9 11 12 13 13 14 14 14 13 12 12 11 13 13 13 13 12 11 12 12 13 14 14 13 13 14 17 18 19 19 16 12
7 8 8 8 7 5 5 5 8 11 10 9 12 15 14 14 12 8 7 7 8 7 7 7 7 6 6 4 2 2 5 8 10 12 13 14 15 14 14 14 13 13 12 12 12 13 11 11 12 12 11 13 13 15 16 14 14 17 18 20 20 17 11
8 9 10 10 8 8 5 4 6 8 10 11 11 11 11 9 6 6 6 7 6 7 8 7 6 7 6 6 5 4 5 7 10 12 13 14 14 13 13 12 11 12 12 12 11 11 11 11 12 13 12 11 12 13 14 14 13 13 19 20 21 22 14
5 6 9 10 11 9 7 7 7 9 10 10 11 10 10 12 12 9 7 7 7 9 8 7 7 7 7 7 7 6 6 7 8 12 14 14 13 13 12 12 12 12 12 12 11 11 11 13 12 12 13 12 12 13 13 14 15 14 19 20 21 23 20
5 6 6 7 10 9 8 8 9 10 11 11 12 12 12 12 12 12 10 6 6 8 8 8 8 7 7 8 8 7 7 8 8 8 10 12 12 12 12 12 12 11 12 11 11 13 13 12 12 12 12 11 12 13 14 15 19 15 17 20 21 22 25
5 6 7 8 8 9 10 9 10 10 10 10 11 10 9 11 14 13 11 9 10 10 9 9 8 7 7 7 7 7 7 8 9 8 6 9 11 13 13 12 12 12 11 12 12 13 13 13 12 12 12 11 11 12 13 13 13 20 15 18 21 22 23
5 5 6 6 7 7 8 9 9 9 9 9 9 9 9 9 10 12 13 13 12 9 8 7 8 7 7 5 6 7 9 9 8 8 7 8 9 11 12 11 12 12 11 12 12 12 12 11 11 11 12 12 12 11 12 11 12 13 19 16 21 21 24
6 6 6 7 8 6 5 7 10 10 11 9 9 9 9 8 9 11 12 13 11 11 10 8 8 8 7 6 5 5 7 8 9 8 8 8 9 10 11 12 12 11 11 11 12 12 12 12 11 12 12 12 13 12 11 11 11 11 13 20 19 22 23
6 6 6 6 6 6 5 6 7 8 11 13 10 10 8 9 8 10 11 11 11 10 11 11 11 10 8 8 7 7 7 8 9 9 9 9 9 10 11 11 11 12 11 11 12 13 13 12 12 12 12 13 12 11 11 10 10 12 11 12 17 17 22
7 6 6 6 7 6 6 5 6 7 9 12 11 10 10 9 9 9 10 10 10 11 11 11 10 9 9 9 9 9 8 9 7 6 7 8 9 10 10 10 11 12 12 12 13 13 13 12 12 12 13 13 12 10 10 11 11 12 12 10 10 11 12
8 6 6 6 7 5 5 5 6 7 7 9 10 9 10 9 9 9 9 10 10 11 11 10 9 9 9 10 9 9 9 9 10 10 7 7 8 9 10 11 12 12 14 14 14 13 13 13 13 13 13 12 11 11 11 12 12 12 13 12 11 10 9
8 7 6 5 6 5 6 5 5 6 7 8 8 9 10 10 9 9 10 10 10 11 11 10 10 9 9 8 8 8 10 9 7 7 7 7 7 9 10 11 12 13 14 15 13 14 15 14 15 15 14 13 13 13 13 13 15 16 12 11 14 14 12
8 7 6 6 5 6 6 6 5 5 6 8 8 9 10 10 10 9 9 10 11 11 11 12 10 8 7 7 7 8 9 8 8 9 8 7 7 8 9 13 16 15 13 12 17 21 21 18 16 16 14 14 14 14 16 16 16 17 19 21 21 21 22
9 7 6 5 4 5 5 6 5 4 4 6 7 8 9 10 9 10 10 11 12 13 13 12 10 8 7 7 6 8 8 9 9 9 8 7 7 7 8 8 10 15 19 19 17 20 22 21 22 21 20 17 13 15 22 21 19 19 19 20 20 21 22
9 8 7 5 5 5 4 5 5 5 6 5 6 7 8 9 9 8 9 11 13 12 12 12 10 9 9 9 9 9 9 8 9 9 9 9 7 7 7 8 8 9 13 16 15 16 20 21 22 22 20 21 19 14 12 16 18 16 16 18 19 20 21
Wind_Direction
209 204 199 199 198 199 196 193 190 190 189 189 189 187 185 184 185 184 186 187 191 192 191 188 189 188 192 194 195 194 194 192 192 195 194 196 193 187 192 197 196 199 196 197 203 200 210 201 197 203 200 199 198 203 208 205 207 206 187 180 174 178 190
204 207 205 203 203 203 201 194 190 189 189 190 190 188 187 187 185 186 188 187 191 191 189 190 190 192 192 194 194 195 194 197 196 199 195 192 190 192 193 196 199 203 202 204 198 202 194 201 192 197 199 197 200 199 205 207 207 204 194 184 178 181 174
200 202 201 202 203 203 202 196 193 192 190 190 190 190 190 189 186 186 185 186 190 192 189 190 191 192 194 193 193 197 197 196 197 200 200 199 196 192 191 194 203 201 205 202 199 200 193 192 194 195 196 198 199 195 199 206 211 205 199 187 187 185 183
200 200 202 203 201 200 198 198 196 194 193 191 191 192 192 190 187 186 185 186 187 189 190 194 192 193 193 192 195 196 198 200 200 201 206 204 199 185 177 192 206 207 196 204 204 197 196 186 190 193 197 199 203 197 191 203 210 208 205 187 194 194 193
202 201 204 201 198 195 196 198 196 196 195 194 194 193 192 189 184 185 189 188 187 189 190 190 192 193 195 194 194 196 197 198 201 204 207 208 202 180 182 190 193 201 208 205 200 197 193 190 192 189 196 196 204 200 203 199 209 211 209 193 199 197 199
202 202 203 200 198 197 198 197 195 196 195 194 193 191 190 186 185 189 190 188 192 193 190 189 190 190 194 195 196 196 195 199 199 200 203 203 199 195 193 192 189 196 199 207 196 199 194 196 197 193 194 195 199 203 205 203 211 206 210 199 206 198 194
204 202 201 201 199 197 198 196 194 195 196 195 191 187 185 186 189 191 189 192 191 190 191 192 193 192 196 192 197 194 195 197 196 200 198 201 203 206 203 190 189 195 201 183 202 195 196 201 204 201 202 198 198 202 203 206 210 206 203 203 211 208 200
225 212 206 202 199 197 196 195 193 192 193 191 186 183 186 189 189 188 192 193 192 192 193 191 192 194 194 195 197 198 196 197 196 196 195 199 201 208 207 199 192 193 183 194 205 192 200 203 205 204 202 204 206 204 205 206 207 204 195 205 210 211 198
223 212 215 208 203 197 194 192 189 188 188 188 188 186 186 186 189 191 193 192 192 193 195 193 194 193 192 193 196 201 199 194 195 194 197 200 202 207 209 208 199 181 191 201 201 199 202 203 204 203 201 208 210 207 208 208 208 203 199 208 209 208 207
350 274 225 225 220 209 199 189 185 182 185 188 187 185 187 189 190 190 192 193 192 195 194 193 193 193 193 194 198 198 196 197 195 194 197 202 204 206 209 208 207 193 196 201 200 202 208 203 201 197 198 206 211 210 210 209 209 207 207 209 208 214 214
11 10 357 328 216 218 204 188 183 188 189 188 187 188 188 188 189 191 193 192 195 195 193 193 192 192 194 195 197 197 199 199 196 196 198 203 205 209 207 207 207 205 205 200 205 207 205 211 204 201 198 205 209 210 211 212 208 210 214 214 211 213 215
12 17 18 12 8 27 36 351 260 218 201 192 189 190 188 189 190 191 191 195 193 191 191 193 192 193 193 195 197 199 200 200 199 200 201 202 205 208 208 207 206 205 206 205 210 209 208 209 209 207 208 211 211 210 212 211 210 212 215 215 213 214 217
13 17 16 18 19 14 18 28 22 17 63 48 239 203 194 193 193 192 193 194 192 192 191 190 190 191 193 195 198 200 201 201 202 202 203 204 206 207 208 209 208 205 206 203 207 209 211 211 212 215 213 216 214 215 213 210 208 211 214 215 213 212 213
11 15 16 17 17 14 11 10 20 25 7 21 145 180 200 204 200 196 194 194 192 189 190 190 191 192 194 194 199 201 202 202 202 204 205 206 205 207 209 209 210 210 208 203 206 209 211 213 212 216 216 218 217 219 216 212 209 209 211 212 211 211 214
13 11 10 14 13 9 6 6 4 5 17 24 16 8 288 195 192 198 197 197 191 188 191 186 187 192 194 197 200 202 201 201 202 204 205 207 207 209 210 210 211 210 209 208 209 210 212 214 214 214 217 221 220 220 216 214 213 208 206 206 209 210 214
12 10 11 8 7 7 3 359 356 359 7 15 19 15 5 352 228 183 184 189 186 189 187 182 191 192 196 199 200 200 199 199 200 200 202 204 206 209 210 212 212 211 212 213 212 213 211 213 215 215 215 217 220 219 219 219 216 212 205 201 203 206 213
10 6 5 7 5 6 1 355 353 357 2 5 7 11 9 351 338 294 186 182 184 188 185 185 190 194 198 201 200 200 200 199 202 201 203 204 206 207 208 210 210 212 214 214 214 215 213 212 215 216 215 215 216 218 221 222 220 211 202 203 204 202 207
8 2 358 0 6 6 3 352 351 352 354 356 357 3 5 359 350 344 41 165 181 182 179 186 189 195 197 199 200 199 199 200 201 204 206 205 208 207 206 207 208 211 212 213 215 216 214 216 216 216 215 216 216 218 220 224 222 210 204 201 203 204 206
3 360 357 353 1 10 4 353 342 338 345 351 352 357 356 352 348 346 326 332 147 150 180 184 189 192 196 199 200 200 198 197 200 202 204 207 207 208 207 207 209 210 210 213 214 213 215 218 217 217 216 216 216 218 220 225 220 210 205 203 202 204 207
5 0 355 352 357 1 1 347 338 334 336 341 345 351 348 347 347 334 325 311 308 158 162 180 191 192 196 198 201 200 197 198 200 201 205 205 206 207 208 208 210 210 210 212 211 214 217 217 219 219 217 216 217 219 222 222 220 207 206 205 203 203 201
7 6 358 351 356 353 348 342 335 333 335 342 344 344 343 346 346 341 334 332 14 42 35 55 162 194 202 202 202 199 198 199 200 203 205 205 206 207 209 210 211 210 210 210 212 213 215 216 218 219 219 218 217 219 223 226 217 205 205 205 203 203 198
356 3 359 357 359 341 342 339 337 332 327 327 334 341 343 342 340 342 335 325 349 5 106 149 149 150 160 214 211 206 201 199 200 202 203 204 205 207 209 210 209 210 209 210 213 215 215 218 218 219 220 219 218 219 225 227 214 204 204 204 204 198 197
346 349 344 345 353 338 330 332 334 325 321 324 331 335 336 339 344 341 335 335 350 13 23 24 151 194 184 188 201 215 211 207 205 204 204 205 206 208 209 209 210 212 207 211 213 213 214 216 215 217 218 218 217 219 225 228 215 203 202 202 200 186 201
322 326 332 338 324 336 338 331 320 311 317 321 326 329 331 338 343 341 341 341 346 5 24 23 16 353 217 213 211 213 213 208 206 207 207 207 209 209 209 209 211 212 205 209 211 214 214 212 216 215 215 216 218 216 221 227 218 202 202 200 192 187 197
328 322 326 328 337 1 341 317 311 314 317 318 325 328 329 329 334 336 351 344 342 357 15 18 6 356 351 339 315 258 242 227 216 212 210 211 212 209 208 208 208 209 206 211 212 217 214 213 216 217 215 216 218 217 219 227 223 203 199 197 191 190 201
328 324 326 327 330 344 341 317 319 332 336 338 331 320 313 305 298 320 341 346 333 360 10 4 344 328 311 307 300 285 264 250 228 216 214 214 214 211 210 209 209 209 208 210 211 214 212 214 215 217 219 214 215 217 218 224 227 208 199 195 192 191 196
298 308 313 322 324 331 338 342 339 343 343 336 330 326 325 332 332 341 357 353 340 356 356 343 332 324 316 298 292 285 276 268 245 226 218 214 212 210 210 207 208 208 207 210 211 213 214 214 213 217 220 216 216 217 216 219 223 219 197 198 192 194 194
294 303 291 303 313 325 337 341 339 340 344 343 337 338 339 336 333 333 343 338 340 347 336 333 324 315 310 308 299 288 276 271 264 239 225 216 210 208 211 210 206 206 207 209 210 213 216 214 214 217 219 221 219 219 220 217 215 221 205 196 193 194 195
290 298 313 320 321 324 333 340 341 337 338 338 341 336 332 333 336 336 333 329 342 341 337 329 318 306 301 305 311 302 284 270 270 264 237 220 210 208 211 205 203 205 205 206 210 214 216 215 214 216 219 221 221 222 222 220 219 214 212 196 194 195 198
266 272 294 293 294 301 327 329 329 330 329 333 335 335 331 334 332 331 330 333 338 329 327 321 314 310 311 319 318 314 307 297 279 268 251 227 212 207 209 206 204 203 201 204 207 211 215 217 215 216 220 220 222 222 223 221 223 213 212 202 195 197 198
267 275 277 289 293 301 309 321 323 323 322 329 332 335 334 331 328 324 327 325 321 326 323 318 311 310 311 310 297 288 288 288 286 271 256 239 217 209 207 206 201 205 205 203 207 211 214 216 212 215 218 220 221 221 220 220 220 223 209 207 196 198 200
270 264 270 283 291 295 303 308 311 320 324 323 330 332 333 328 327 322 321 317 318 321 326 322 318 316 314 311 303 291 279 273 268 260 248 238 222 216 209 205 201 205 204 205 208 209 213 213 212 216 217 220 222 219 218 216 220 222 215 204 204 202 204
264 255 264 280 281 290 301 310 310 315 323 319 323 328 326 327 325 317 316 320 321 323 324 319 314 315 314 312 308 300 287 273 266 261 246 230 224 215 210 205 203 205 206 205 209 212 214 213 212 217 217 221 221 218 216 218 221 221 219 204 199 203 204
264 260 253 254 271 277 282 287 293 306 313 314 316 319 317 321 323 319 316 319 323 326 324 320 322 317 312 307 303 296 289 283 279 280 264 239 222 215 211 207 206 206 207 206 208 208 212 211 213 216 216 220 216 215 216 221 223 221 218 211 202 203 191
252 248 245 257 262 258 268 273 289 301 301 301 309 314 313 317 320 322 317 321 323 320 317 319 319 309 297 295 295 290 281 271 277 280 278 258 231 222 213 206 207 212 215 215 208 206 208 209 213 213 216 215 211 208 217 220 222 224 212 209 198 196 195
258 255 247 239 243 250 259 270 271 284 298 301 310 312 313 320 322 322 319 321 323 319 318 320 318 311 304 295 292 289 286 289 292 286 280 266 248 232 230 225 215 208 214 220 214 213 212 206 210 212 211 215 214 207 211 217 220 216 197 202 200 197 195
259 253 252 242 230 245 252 268 280 286 290 297 307 310 315 319 321 321 323 326 321 319 317 318 317 318 318 312 305 296 291 288 283 284 286 278 259 240 231 230 239 234 226 223 216 211 215 213 220 220 214 210 216 217 220 224 222 214 201 201 200 196 200
247 247 249 247 218 231 251 268 284 293 294 296 299 309 317 315 318 317 322 326 322 319 314 315 319 320 322 320 311 303 297 286 284 286 290 289 270 245 232 230 227 232 238 237 239 224 212 218 222 222 218 217 216 216 224 227 226 216 202 202 199 199 202